Torna al catalogo

CZ-6 R/B

AttivoLEO
NORAD 49023·ROCKET BODY·🇨🇳 China

Lanciato Jul 9, 2021 da Taiyuan Satellite Launch Center

Loading…

Prossimi Passaggi (prossime 24 ore)

TLE

AggiornatoSource: Space-Track

Epoca: Sep 14, 2026, 11:37 UTC

1 49023U 21064F   26257.48455627  .00000077  00000-0  63262-4 0  9991
2 49023  44.9982  90.1762 0171584 174.4831 185.7958 14.40296832272750

Traccia CZ-6 R/B in tempo reale con AllMySat

Download on the App Store